Weather History for Telfer, WE

Change the Weather History Date:

Friday, February 22, 2013

  Actual Average Record
Temperature  
Mean Temperature 98 °F -  
Max Temperature 110 °F - - ()
Min Temperature 85 °F - - ()
Cooling Degree Days 32    
Growing Degree Days 48 (Base 50)    
Moisture  
Dew Point 59 °F    
Average Humidity 27    
Maximum Humidity 55    
Minimum Humidity 8    
Precipitation  
Precipitation 0.00 in - - ()
Sea Level Pressure  
Sea Level Pressure 29.66 in    
Wind  
Wind Speed 9 mph ()    
Max Wind Speed 17 mph    
Max Gust Speed -    
T = Trace of Precipitation, MM = Missing Value Source: Averaged Metar Reports

Daily Weather History Graph

Daily Weather History Graph

Search for Another Location

Airport:

Trip Planner

Search our weather history database for the weather conditions in past years. The results will help you decide how hot, cold, wet, or windy it might be!

Date:

Astronomy

Feb. 22, 2013 Rise Set
Actual Time 5:44 AM AWST 6:24 PM AWST
Civil Twilight 5:21 AM AWST 6:47 PM AWST
Nautical Twilight 4:54 AM AWST 7:13 PM AWST
Astronomical Twilight 4:27 AM AWST 7:40 PM AWST
Moon 3:44 PM AWST (2/22) 2:18 AM AWST (2/22)
Length of Visible Light 13h 25m
Length of Day
12h 39m
Waxing Gibbous, 87% of the Moon is Illuminated
Feb 22
Waxing Gibbous
Feb 26
Full
Mar 5
Last Quarter
Mar 12
New
Mar 20
First Quarter

Hourly Weather History & Observations

Time (AWST) Temp. Heat Index Dew Point Humidity Pressure Visibility Wind Dir Wind Speed Gust Speed Precip Events Conditions
12:00 AM 91 °F - 62 °F 27% 29.65 in - NW 8.1 mph - -  
12:00 AM 91.4 °F 91.4 °F 60.8 °F 36% 29.71 in - NW 8.1 mph - N/A   Unknown
1:00 AM 87.8 °F 88.5 °F 62.6 °F 43% 29.71 in - West 9.2 mph - N/A   Unknown
2:00 AM 88 °F - 64 °F 35% 29.65 in - WSW 11.5 mph - -  
2:00 AM 87.8 °F 89.4 °F 64.4 °F 46% 29.71 in - WSW 11.5 mph - N/A   Unknown
3:00 AM 88 °F - 65 °F 36% 29.63 in - WSW 13.8 mph - -  
3:00 AM 87.8 °F 89.4 °F 64.4 °F 46% 29.68 in - WSW 13.8 mph - N/A   Unknown
4:00 AM 87.8 °F 90.4 °F 66.2 °F 49% 29.68 in - SW 12.7 mph - N/A   Unknown
5:00 AM 87 °F - 66 °F 40% 29.65 in - WSW 11.5 mph - -  
5:00 AM 87.8 °F 90.4 °F 66.2 °F 49% 29.71 in - WSW 11.5 mph - N/A   Unknown
6:00 AM 86 °F - 67 °F 44% 29.66 in - WSW 11.5 mph - -  
6:00 AM 86.0 °F 89.4 °F 68.0 °F 55% 29.71 in - WSW 11.5 mph - N/A   Unknown
7:00 AM 87.8 °F 91.4 °F 68.0 °F 52% 29.74 in - SW 9.2 mph - N/A   Unknown
8:00 AM 93 °F - 67 °F 33% 29.69 in - SW 9.2 mph - -  
8:00 AM 93.2 °F 96.2 °F 66.2 °F 41% 29.74 in - SW 9.2 mph - N/A   Unknown
9:00 AM 96 °F - 62 °F 23% 29.69 in - SSW 6.9 mph - -  
9:00 AM 96.8 °F 98.0 °F 62.6 °F 32% 29.74 in - SSW 6.9 mph - N/A   Unknown
10:00 AM 98.6 °F 99.4 °F 60.8 °F 29% 29.74 in - NE 3.5 mph - N/A   Unknown
11:00 AM 104 °F - 57 °F 14% 29.65 in - ENE 10.4 mph - -  
11:00 AM 104.0 °F 103.4 °F 57.2 °F 21% 29.71 in - ENE 10.4 mph - N/A   Unknown
12:00 PM 104 °F - 57 °F 14% 29.62 in - NE 8.1 mph - -  
12:00 PM 104.0 °F 103.4 °F 57.2 °F 21% 29.68 in - NE 8.1 mph - N/A   Unknown
1:00 PM 104.0 °F 103.4 °F 57.2 °F 21% 29.65 in - NE 9.2 mph - N/A   Unknown
2:00 PM 108 °F - 52 °F 9% 29.57 in - East 13.8 mph - -  
2:00 PM 107.6 °F - 51.8 °F 16% 29.62 in - East 13.8 mph - N/A   Unknown
3:00 PM 109 °F - 51 °F 8% 29.54 in - ENE 17.3 mph - -  
3:00 PM 109.4 °F - 51.8 °F 15% 29.59 in - ENE 17.3 mph - N/A   Unknown
4:00 PM 107.6 °F - 51.8 °F 16% 29.59 in - ENE 11.5 mph - N/A   Unknown
5:00 PM 106 °F - 51 °F 9% 29.54 in - East 15.0 mph - -  
5:00 PM 105.8 °F - 50.0 °F 15% 29.59 in - East 15.0 mph - N/A   Unknown
6:00 PM 104 °F - 53 °F 11% 29.56 in - ENE 10.4 mph - -  
6:00 PM 104.0 °F 102.3 °F 53.6 °F 19% 29.62 in - ENE 10.4 mph - N/A   Unknown
7:00 PM 100.4 °F 98.4 °F 53.6 °F 21% 29.65 in - ENE 8.1 mph - N/A   Unknown
8:00 PM 98 °F - 54 °F 14% 29.61 in - NE 6.9 mph - -  
8:00 PM 98.6 °F 96.4 °F 53.6 °F 22% 29.68 in - NE 6.9 mph - N/A   Unknown
9:00 PM 96 °F - 54 °F 16% 29.63 in - NE 5.8 mph - -  
9:00 PM 95.0 °F 92.7 °F 53.6 °F 25% 29.68 in - NE 5.8 mph - N/A   Unknown
10:00 PM 93.2 °F 91.3 °F 55.4 °F 28% 29.68 in - NE 4.6 mph - N/A   Unknown
11:00 PM 92 °F - 55 °F 19% 29.63 in - NE 2.3 mph - -  
11:00 PM 91.4 °F 89.4 °F 55.4 °F 29% 29.68 in - NE 2.3 mph - N/A   Unknown